Weather History for YBHM - October, 2012

Change the Weather History Date:

Tuesday, October 16, 2012

  Actual Average Record
Temperature  
Mean Temperature 74 °F -  
Max Temperature 78 °F - - ()
Min Temperature 71 °F - - ()
Cooling Degree Days 10    
Growing Degree Days 24 (Base 50)    
Moisture  
Dew Point 48 °F    
Average Humidity 40    
Maximum Humidity 57    
Minimum Humidity 12    
Precipitation  
Precipitation 0.00 in - - ()
Sea Level Pressure  
Sea Level Pressure 30.12 in    
Wind  
Wind Speed 23 mph ()    
Max Wind Speed 29 mph    
Max Gust Speed -    
T = Trace of Precipitation, MM = Missing Value Source: Averaged Metar Reports

Daily Weather History Graph

Daily Weather History Graph

Search for Another Location

Airport or City:

Trip Planner

Search our weather history database for the weather conditions in past years. The results will help you decide how hot, cold, wet, or windy it might be!

Date:

Astronomy

Oct. 16, 2012 Rise Set
Actual Time 5:32 AM AEST 6:06 PM AEST
Civil Twilight 5:10 AM AEST 6:29 PM AEST
Nautical Twilight 4:44 AM AEST 6:55 PM AEST
Astronomical Twilight 4:17 AM AEST 7:22 PM AEST
Moon 5:43 AM AEST (10/16) 6:54 PM AEST (10/16)
Length of Visible Light 13h 18m
Length of Day
12h 33m
New Moon, 0% of the Moon is Illuminated
Oct 16
New Moon
Oct 22
First Quarter
Oct 30
Full
Nov 7
Last Quarter
Nov 14
New

Hourly Weather History & Observations

Time (AEST) Temp. Dew Point Humidity Pressure Visibility Wind Dir Wind Speed Gust Speed Precip Events Conditions
12:00 AM 73 °F 52 °F 37% 30.17 in - ESE 23.0 mph - -  
12:00 AM 73.4 °F 51.8 °F 47% 30.15 in - ESE 23.0 mph - N/A   Unknown
12:30 AM 73.4 °F 53.6 °F 50% 30.15 in - ESE 24.2 mph - N/A   Unknown
1:00 AM 73.4 °F 53.6 °F 50% 30.15 in - ESE 23.0 mph - N/A   Unknown
1:30 AM 73.4 °F 51.8 °F 47% 30.12 in - East 25.3 mph - N/A   Unknown
2:00 AM 73.4 °F 51.8 °F 47% 30.12 in - ESE 25.3 mph - N/A   Unknown
3:00 AM 72 °F 55 °F 44% 30.12 in - ESE 27.6 mph - -  
3:00 AM 71.6 °F 55.4 °F 57% 30.12 in - ESE 27.6 mph - N/A   Unknown
3:30 AM 71.6 °F 53.6 °F 53% 30.12 in - ESE 26.5 mph - N/A   Unknown
4:00 AM 73.4 °F 55.4 °F 53% 30.09 in - ESE 28.8 mph - N/A   Unknown
4:30 AM 71.6 °F 53.6 °F 53% 30.12 in - ESE 26.5 mph - N/A   Unknown
5:00 AM 73.4 °F 51.8 °F 47% 30.12 in - East 25.3 mph - N/A   Unknown
5:30 AM 73.4 °F 53.6 °F 50% 30.12 in - ESE 26.5 mph - N/A   Unknown
6:00 AM 73 °F 53 °F 38% 30.13 in - ESE 26.5 mph - -  
6:00 AM 73.4 °F 51.8 °F 47% 30.12 in - ESE 26.5 mph - N/A   Unknown
6:30 AM 73.4 °F 50.0 °F 44% 30.12 in - East 25.3 mph - N/A   Unknown
7:00 AM 73.4 °F 42.8 °F 33% 30.12 in - East 25.3 mph - N/A   Unknown
7:30 AM 73.4 °F 48.2 °F 41% 30.15 in - East 27.6 mph - N/A   Unknown
8:00 AM 75.2 °F 48.2 °F 38% 30.15 in - ESE 26.5 mph - N/A   Unknown
8:30 AM 75.2 °F 50.0 °F 41% 30.15 in - East 26.5 mph - N/A   Unknown
9:00 AM 76 °F 48 °F 27% 30.17 in - ESE 26.5 mph - -  
9:00 AM 75.2 °F 48.2 °F 38% 30.15 in - ESE 26.5 mph - N/A   Unknown
9:30 AM 77.0 °F 50.0 °F 39% 30.15 in - East 25.3 mph - N/A   Unknown
10:00 AM 77.0 °F 42.8 °F 29% 30.15 in - ESE 27.6 mph - N/A   Unknown
10:30 AM 77.0 °F 50.0 °F 39% 30.15 in - ESE 26.5 mph - N/A   Unknown
11:00 AM 77.0 °F 50.0 °F 39% 30.15 in - East 27.6 mph - N/A   Unknown
11:30 AM 77.0 °F 46.4 °F 34% 30.15 in - ESE 25.3 mph - N/A   Unknown
12:00 PM 78 °F 35 °F 12% 30.14 in - ESE 24.2 mph - -  
12:00 PM 77.0 °F 33.8 °F 21% 30.12 in - ESE 24.2 mph - N/A   Unknown
12:30 PM 77.0 °F 42.8 °F 29% 30.12 in - ESE 23.0 mph - N/A   Unknown
1:00 PM 77.0 °F 42.8 °F 29% 30.12 in - ESE 24.2 mph - N/A   Unknown
1:30 PM 77.0 °F 33.8 °F 21% 30.12 in - ESE 24.2 mph - N/A   Unknown
2:00 PM 77.0 °F 44.6 °F 32% 30.09 in - ESE 24.2 mph - N/A   Unknown
2:30 PM 75.2 °F 46.4 °F 36% 30.09 in - ESE 25.3 mph - N/A   Unknown
3:00 PM 75 °F 46 °F 25% 30.08 in - ESE 24.2 mph - -  
3:00 PM 75.2 °F 46.4 °F 36% 30.06 in - ESE 24.2 mph - N/A   Unknown
3:30 PM 75.2 °F 48.2 °F 38% 30.06 in - ESE 23.0 mph - N/A   Unknown
4:00 PM 73.4 °F 50.0 °F 44% 30.06 in - ESE 25.3 mph - N/A   Unknown
4:30 PM 73.4 °F 50.0 °F 44% 30.06 in - ESE 26.5 mph - N/A   Unknown
5:00 PM 73.4 °F 48.2 °F 41% 30.06 in - ESE 25.3 mph - N/A   Unknown
5:30 PM 73.4 °F 46.4 °F 38% 30.06 in - ESE 25.3 mph - N/A   Unknown
6:00 PM 72 °F 43 °F 25% 30.09 in - ESE 24.2 mph - -  
6:00 PM 73.4 °F 42.8 °F 33% 30.09 in - ESE 24.2 mph - N/A   Unknown
6:30 PM 71.6 °F 46.4 °F 41% 30.09 in - SE 24.2 mph - N/A   Unknown
7:00 PM 71.6 °F 44.6 °F 38% 30.09 in - SE 18.4 mph - N/A   Unknown
7:30 PM 71.6 °F 50.0 °F 46% 30.09 in - SE 19.6 mph - N/A   Unknown
8:00 PM 71.6 °F 50.0 °F 46% 30.12 in - SE 19.6 mph - N/A   Unknown
8:30 PM 71.6 °F 48.2 °F 43% 30.12 in - ESE 17.3 mph - N/A   Unknown
9:00 PM 72 °F 49 °F 33% 30.13 in - ESE 18.4 mph - -  
9:00 PM 73.4 °F 48.2 °F 41% 30.12 in - ESE 18.4 mph - N/A   Unknown
10:00 PM 71.6 °F 51.8 °F 50% 30.12 in - ESE 18.4 mph - N/A   Unknown
10:30 PM 71.6 °F 48.2 °F 43% 30.12 in - ESE 16.1 mph - N/A   Unknown
11:00 PM 71.6 °F 50.0 °F 46% 30.12 in - ESE 16.1 mph - N/A   Unknown
11:30 PM 71.6 °F 50.0 °F 46% 30.12 in - SE 18.4 mph - N/A   Unknown